Date String (YYYY-MM-DD hh:mm:ss) UTC,Instrument flags,Ambient pressure (hPa),Sample flow (lpm),Bypass flow (lpm),Sample temperature (°C),Ambient temperature (°C),ASC tube jacket temperature (°C),LED temperature (°C),Box temperature (°C),Sample RH (%),Span deviation,Mass concentration (μg/m³),Mass concentration (μg/m³),Mass concentration (μg/m³)
DateTimeUTC,F1_M11,P_M11,Q1_M11,Q2_M11,T1_M11,T2_M11,T3_M11,T4_M11,T5_M11,U1_M11,ZSPAN_M11,X0_M11,X2_M11,X1_M11
2022-06-01 05:00:00,,0833.5,4.99,0.00,27.5,26.4,00.0,36.4,29.4,20.3,0000.0,0001.07,0000.84,0000.79
2022-06-01 05:01:00,,0833.5,5.01,0.00,27.5,26.4,00.0,36.4,29.4,20.3,0000.0,0001.12,0000.85,0000.78
2022-06-01 05:02:00,,0833.5,5.00,0.00,27.5,26.4,00.0,36.4,29.4,20.3,0000.0,0001.13,0000.85,0000.77
2022-06-01 05:03:00,,0833.5,5.00,0.00,27.5,26.4,00.0,36.4,29.4,20.3,0000.0,0001.22,0000.88,0000.77
2022-06-01 05:04:00,,0833.5,5.00,0.00,27.5,26.4,00.0,36.4,29.4,20.2,0000.0,0001.27,0000.90,0000.77
2022-06-01 05:05:00,,0833.5,5.00,0.00,27.5,26.3,00.0,36.4,29.4,20.1,0000.0,0001.29,0000.90,0000.75
2022-06-01 05:06:00,,0833.4,5.00,0.00,27.5,26.3,00.0,36.4,29.4,20.1,0000.0,0001.27,0000.89,0000.74
2022-06-01 05:07:00,,0833.4,4.99,0.00,27.5,26.3,00.0,36.4,29.4,20.1,0000.0,0001.29,0000.89,0000.73
2022-06-01 05:08:00,,0833.4,5.00,0.00,27.5,26.3,00.0,36.4,29.3,20.0,0000.0,0001.31,0000.89,0000.72
2022-06-01 05:09:00,,0833.5,5.00,0.00,27.5,26.3,00.0,36.4,29.3,20.0,0000.0,0001.32,0000.89,0000.71
2022-06-01 05:10:00,,0833.4,5.01,0.00,27.5,26.3,00.0,36.4,29.3,20.0,0000.0,0001.27,0000.86,0000.69
2022-06-01 05:11:00,,0833.4,5.01,0.00,27.4,26.3,00.0,36.4,29.3,20.0,0000.0,0001.25,0000.85,0000.68
2022-06-01 05:12:00,,0833.4,4.99,0.00,27.4,26.3,00.0,36.4,29.3,20.0,0000.0,0001.23,0000.84,0000.67
2022-06-01 05:13:00,,0833.4,5.01,0.00,27.4,26.3,00.0,36.4,29.3,19.9,0000.0,0001.20,0000.83,0000.67
2022-06-01 05:14:00,,0833.4,5.00,0.00,27.4,26.3,00.0,36.4,29.3,19.9,0000.0,0001.12,0000.79,0000.66
2022-06-01 05:15:00,,0833.4,5.00,0.00,27.4,26.3,00.0,36.4,29.3,19.8,0000.0,0001.03,0000.75,0000.65
2022-06-01 05:16:00,,0833.4,4.99,0.00,27.4,26.3,00.0,36.4,29.3,19.8,0000.0,0001.00,0000.74,0000.65
2022-06-01 05:17:00,,0833.4,5.00,0.00,27.4,26.3,00.0,36.4,29.3,19.9,0000.0,0000.96,0000.72,0000.65
2022-06-01 05:18:00,,0833.4,5.00,0.00,27.4,26.3,00.0,36.4,29.3,20.0,0000.0,0000.98,0000.72,0000.64
2022-06-01 05:19:00,,0833.4,5.00,0.00,27.4,26.3,00.0,36.4,29.3,20.0,0000.0,0001.01,0000.72,0000.64
2022-06-01 05:20:00,,0833.4,4.97,0.00,27.4,26.3,00.0,36.4,29.3,20.1,0000.0,0001.08,0000.76,0000.64
2022-06-01 05:21:00,,0833.5,5.00,0.00,27.4,26.3,00.0,36.4,29.3,20.2,0000.0,0001.18,0000.81,0000.65
2022-06-01 05:22:00,,0833.4,5.00,0.00,27.4,26.3,00.0,36.4,29.3,20.4,0000.0,0001.23,0000.83,0000.66
2022-06-01 05:23:00,,0833.4,5.00,0.00,27.4,26.3,00.0,36.4,29.3,20.6,0000.0,0001.32,0000.87,0000.68
2022-06-01 05:24:00,,0833.4,5.01,0.00,27.4,26.3,00.0,36.4,29.3,20.8,0000.0,0001.48,0000.94,0000.70
2022-06-01 05:25:00,,0833.4,5.01,0.00,27.4,26.3,00.0,36.4,29.3,21.3,0000.0,0001.53,0000.96,0000.71
2022-06-01 05:26:00,,0833.4,4.99,0.00,27.4,26.3,00.0,36.4,29.3,22.9,0000.0,0001.63,0001.00,0000.72
2022-06-01 05:27:00,,0833.4,4.99,0.00,27.4,26.3,00.0,36.4,29.3,22.7,0000.0,0001.80,0001.07,0000.75
2022-06-01 05:28:00,,0833.3,5.00,0.00,27.4,26.3,00.0,36.4,29.3,21.9,0000.0,0001.90,0001.12,0000.77
2022-06-01 05:29:00,,0833.3,5.01,0.00,27.4,26.3,00.0,36.4,29.3,21.8,0000.0,0001.92,0001.16,0000.79
2022-06-01 05:30:00,,0833.4,5.00,0.00,27.4,26.3,00.0,36.4,29.3,21.8,0000.0,0001.91,0001.18,0000.82
2022-06-01 05:31:00,,0833.3,5.00,0.00,27.4,26.3,00.0,36.4,29.3,21.7,0000.0,0001.96,0001.21,0000.86
2022-06-01 05:32:00,,0833.3,5.00,0.00,27.4,26.3,00.0,36.3,29.3,21.8,0000.0,0002.00,0001.23,0000.88
2022-06-01 05:33:00,,0833.3,5.00,0.00,27.4,26.3,00.0,36.3,29.3,21.8,0000.0,0001.98,0001.24,0000.90
2022-06-01 05:34:00,,0833.3,5.01,0.00,27.4,26.3,00.0,36.3,29.3,21.8,0000.0,0001.93,0001.24,0000.92
2022-06-01 05:35:00,,0833.4,4.99,0.00,27.4,26.3,00.0,36.3,29.3,21.8,0000.0,0001.89,0001.23,0000.93
2022-06-01 05:36:00,,0833.3,5.00,0.00,27.4,26.3,00.0,36.3,29.3,21.9,0000.0,0001.96,0001.27,0000.95
2022-06-01 05:37:00,,0833.3,5.01,0.00,27.4,26.3,00.0,36.3,29.3,21.9,0000.0,0002.01,0001.29,0000.96
2022-06-01 05:38:00,,0833.3,5.00,0.00,27.4,26.3,00.0,36.3,29.3,21.9,0000.0,0001.86,0001.25,0000.96
2022-06-01 05:39:00,,0833.4,5.00,0.00,27.4,26.3,00.0,36.3,29.3,22.0,0000.0,0001.86,0001.26,0000.98
2022-06-01 05:40:00,,0833.3,5.00,0.00,27.4,26.4,00.0,36.3,29.3,21.9,0000.0,0001.92,0001.29,0001.00
2022-06-01 05:41:00,,0833.3,5.00,0.00,27.4,26.4,00.0,36.3,29.3,21.9,0000.0,0002.01,0001.32,0001.01
2022-06-01 05:42:00,,0833.3,5.00,0.00,27.4,26.4,00.0,36.3,29.3,21.9,0000.0,0001.94,0001.30,0001.03
2022-06-01 05:43:00,,0833.2,5.01,0.00,27.4,26.4,00.0,36.3,29.3,21.8,0000.0,0001.87,0001.29,0001.04
2022-06-01 05:44:00,,0833.3,5.00,0.00,27.4,26.4,00.0,36.3,29.3,21.8,0000.0,0001.87,0001.29,0001.04
2022-06-01 05:45:00,,0833.3,5.00,0.00,27.4,26.4,00.0,36.3,29.3,21.8,0000.0,0001.88,0001.29,0001.04
2022-06-01 05:46:00,,0833.4,5.01,0.00,27.4,26.4,00.0,36.3,29.3,21.8,0000.0,0001.85,0001.30,0001.05
2022-06-01 05:47:00,,0833.4,4.99,0.00,27.4,26.4,00.0,36.3,29.3,21.8,0000.0,0001.86,0001.30,0001.07
2022-06-01 05:48:00,,0833.4,5.01,0.00,27.4,26.4,00.0,36.3,29.3,21.7,0000.0,0001.79,0001.28,0001.08
2022-06-01 05:49:00,,0833.3,5.00,0.00,27.4,26.4,00.0,36.4,29.3,21.6,0000.0,0001.85,0001.30,0001.07
2022-06-01 05:50:00,,0833.2,4.99,0.00,27.4,26.4,00.0,36.3,29.3,21.6,0000.0,0001.82,0001.29,0001.06
2022-06-01 05:51:00,,0833.1,5.01,0.00,27.4,26.4,00.0,36.3,29.3,21.6,0000.0,0001.72,0001.25,0001.04
2022-06-01 05:52:00,,0833.1,5.00,0.00,27.4,26.4,00.0,36.4,29.3,21.6,0000.0,0001.62,0001.21,0001.03
2022-06-01 05:53:00,,0833.1,4.99,0.00,27.4,26.4,00.0,36.4,29.3,21.4,0000.0,0001.64,0001.21,0001.01
2022-06-01 05:54:00,,0833.1,5.00,0.00,27.4,26.4,00.0,36.3,29.3,21.2,0000.0,0001.59,0001.17,0000.97
2022-06-01 05:55:00,,0833.1,5.00,0.00,27.4,26.4,00.0,36.3,29.3,21.0,0000.0,0001.65,0001.19,0000.95
2022-06-01 05:56:00,,0833.1,4.99,0.00,27.4,26.3,00.0,36.3,29.3,20.8,0000.0,0001.60,0001.15,0000.91
2022-06-01 05:57:00,,0833.1,5.00,0.00,27.4,26.3,00.0,36.3,29.3,20.7,0000.0,0001.49,0001.08,0000.86
2022-06-01 05:58:00,,0833.1,5.00,0.00,27.4,26.3,00.0,36.3,29.3,20.5,0000.0,0001.91,0001.05,0000.82
2022-06-01 05:59:00,,0833.2,5.01,0.00,27.4,26.3,00.0,36.3,29.3,20.5,0000.0,0002.23,0001.00,0000.78
